CAPE
0 0 0 0 0 0 0 0 0 0 0 0 0 0 0 0 0 0 0 0 0 0 0 0 0 0 0 0 0 0 0 0 0 0 0 0 0 0 0 0 0 0 0 0
0 0 0 0 0 0 0 0 0 0 0 0 0 0 0 0 0 0 0 0 0 0 0 0 0 0 0 0 0 0 0 0 0 0 0 0 0 0 0 0 0 0 0 0
0 0 0 0 0 0 0 0 0 0 0 0 0 0 0 0 0 0 0 0 0 0 0 0 0 0 0 0 0 0 0 0 0 0 0 0 0 0 0 0 0 0 0 0
0 0 0 0 0 0 0 0 0 0 0 0 0 0 0 0 0 0 0 0 0 0 0 0 0 0 0 0 0 0 0 0 0 0 0 0 0 0 0 0 0 0 0 0
0 0 0 0 0 0 0 0 0 0 0 0 0 0 0 0 0 0 0 0 0 0 0 0 0 0 0 0 0 0 0 0 0 0 0 0 0 0 0 0 0 0 0 0
0 0 0 0 0 0 0 0 0 0 0 0 0 0 0 0 0 0 0 0 0 0 0 0 0 0 0 0 0 0 0 0 0 0 0 0 0 0 0 0 0 0 0 0
0 0 0 0 0 0 0 0 0 0 0 0 0 0 0 0 0 0 0 0 0 0 0 0 0 0 0 0 0 0 0 0 0 0 0 0 0 0 0 0 0 0 0 0
0 0 0 0 0 0 0 0 0 0 0 0 0 0 0 0 0 0 0 0 0 0 0 0 0 0 0 0 0 0 0 0 0 0 0 0 0 0 0 0 0 0 0 0
0 0 0 0 0 0 0 0 0 0 0 0 0 0 0 0 0 0 0 0 0 0 0 0 0 0 0 0 0 0 0 0 0 0 0 0 0 0 0 0 0 0 0 0
0 0 0 0 0 0 0 0 0 0 0 0 0 0 0 0 0 0 0 0 0 0 0 0 0 0 0 0 0 0 0 0 0 0 0 0 0 0 0 0 0 0 0 0
0 0 0 0 0 0 0 0 0 0 0 0 0 0 0 0 0 0 0 0 0 0 0 0 0 0 0 0 0 0 0 0 0 0 0 0 0 0 0 0 0 0 0 0
0 0 0 0 0 0 0 0 0 0 0 0 0 0 0 0 0 0 0 0 0 0 0 0 0 0 0 0 0 0 0 0 0 0 0 0 0 0 0 0 0 0 0 0
0 0 0 0 0 0 0 0 0 0 0 0 0 0 0 0 0 0 0 0 0 0 0 0 0 0 0 0 0 0 0 0 0 0 0 0 0 0 0 0 0 0 0 0
0 0 0 0 0 0 0 0 0 0 0 0 0 0 0 0 0 0 0 0 0 0 0 0 0 0 0 0 0 0 0 0 0 0 0 0 0 0 0 0 0 0 0 0
0 0 0 0 0 0 0 0 0 0 0 0 0 0 0 0 0 0 0 0 0 0 0 0 0 0 0 0 0 0 0 0 0 0 0 0 0 0 0 0 0 0 0 0
0 0 0 0 0 0 0 0 0 0 0 0 0 0 0 0 0 0 0 0 0 0 0 0 0 0 0 0 0 0 0 0 0 0 0 0 0 0 0 0 0 0 0 0
0 0 0 0 0 0 0 0 0 0 0 0 0 0 0 0 0 0 0 0 0 0 0 0 0 0 0 0 0 0 0 0 0 0 0 0 0 0 0 0 0 0 0 0
3 0 0 0 0 0 0 0 0 0 0 0 0 0 0 0 0 0 0 0 0 0 0 0 0 0 0 0 0 0 0 0 0 0 0 0 0 0 0 0 0 0 0 0
0 2 1 0 0 0 0 0 0 0 0 0 0 0 0 0 0 0 0 0 0 0 0 0 0 0 0 0 0 0 0 0 0 0 0 0 0 0 0 0 0 0 0 0
0 0 0 5 2 3 0 0 0 0 0 0 0 0 0 0 0 0 0 0 0 0 0 0 0 0 0 0 0 0 0 0 0 0 0 0 0 0 0 0 0 0 0 0
0 1 7 15 11 0 0 0 0 0 0 0 0 0 0 0 0 0 0 0 0 0 0 0 0 0 0 0 0 0 0 0 0 0 0 0 0 0 0 0 0 0 0 0
14 12 8 0 0 0 0 0 0 0 0 0 0 0 0 0 0 0 0 0 0 0 0 0 0 0 0 0 0 0 0 0 0 0 0 0 0 0 0 0 0 0 0 0
0 12 3 0 0 0 0 0 0 0 0 0 0 0 0 0 0 0 0 0 0 0 0 0 0 0 0 0 0 0 0 0 0 0 0 0 0 0 0 0 0 0 0 0
0 0 0 1 0 0 0 0 0 0 0 0 0 0 0 0 0 0 0 0 0 0 0 0 0 0 0 0 0 0 0 0 0 0 0 0 0 0 0 0 0 0 0 0
0 0 0 0 0 1 0 0 0 0 0 0 0 0 0 0 0 0 0 0 0 0 0 0 0 0 0 0 0 0 0 0 0 0 0 0 0 0 0 0 0 0 0 0
0 0 0 0 0 0 0 0 0 0 0 0 0 0 0 0 0 0 0 0 0 0 0 0 0 0 0 0 0 0 0 0 0 0 0 0 0 0 0 0 0 0 3 5
CIN
-0 -0 -0 -0 -0 -0 -0 -0 -0 -0 -0 -0 -0 -0 -0 -0 -0 -0 -0 -0 -0 -0 -0 -0 -0 -0 -0 -0 -0 -0 -0 -0 -0 -0 -0 -0 -0 -0 -0 -0 -0 -0 -0 -0
-0 -0 -0 -0 -0 -0 -0 -0 -0 -0 -0 -0 -0 -0 -0 -0 -0 -0 -0 -0 -0 -0 -0 -0 -0 -0 -0 -0 -0 -0 -0 -0 -0 -0 -0 -0 -0 -0 -0 -0 -0 -0 -0 -0
-0 -0 -0 -0 -0 -0 -0 -0 -0 -0 -0 -0 -0 -0 -0 -0 -0 -0 -0 -0 -0 -0 -0 -0 -0 -0 -0 -0 -0 -0 -0 -0 -0 -0 -0 -0 -0 -0 -0 -0 -0 -0 -0 -0
-0 -0 -0 -0 -0 -0 -0 -0 -0 -0 -0 -0 -0 -0 -0 -0 -0 -0 -0 -0 -0 -0 -0 -0 -0 -0 -0 -0 -0 -0 -0 -0 -0 -0 -0 -0 -0 -0 -0 -0 -0 -0 -0 -0
-0 -0 -0 -0 -0 -0 -0 -0 -0 -0 -0 -0 -0 -0 -0 -0 -0 -0 -0 -0 -0 -0 -0 -0 -0 -0 -0 -0 -0 -0 -0 -0 -0 -0 -0 -0 -0 -0 -0 -0 -0 -0 -0 -0
-0 -0 -0 -0 -0 -0 -0 -0 -0 -0 -0 -0 -0 -0 -0 -0 -0 -0 -0 -0 -0 -0 -0 -0 -0 -0 -0 -0 -0 -0 -0 -0 -0 -0 -0 -0 -0 -0 -0 -0 -0 -0 -0 -0
-0 -0 -0 -0 -0 -0 -0 -0 -0 -0 -0 -0 -0 -0 -0 -0 -0 -0 -0 -0 -0 -0 -0 -0 -0 -0 -0 -0 -0 -0 -0 -0 -0 -0 -0 -0 -0 -0 -0 -0 -0 -0 -0 -0
-0 -0 -0 -0 -0 -0 -0 -0 -0 -0 -0 -0 -0 -0 -0 -0 -0 -0 -0 -0 -0 -0 -0 -0 -0 -0 -0 -0 -0 -0 -0 -0 -0 -0 -0 -0 -0 -0 -0 -0 -0 -0 -0 -0
-0 -0 -0 -0 -0 -0 -0 -0 -0 -0 -0 -0 -0 -0 -0 -0 -0 -0 -0 -0 -0 -0 -0 -0 -0 -0 -0 -0 -0 -0 -0 -0 -0 -0 -0 -0 -0 -0 -0 -0 -0 -0 -0 -0
-0 -0 -0 -0 -0 -0 -0 -0 -0 -0 -0 -0 -0 -0 -0 -0 -0 -0 -0 -0 -0 -0 -0 -0 -0 -0 -0 -0 -0 -0 -0 -0 -0 -0 -0 -0 -0 -0 -0 -0 -0 -0 -0 -0
-0 -0 -0 -0 -0 -0 -0 -0 -0 -0 -0 -0 -0 -0 -0 -0 -0 -0 -0 -0 -0 -0 -0 -0 -0 -0 -0 -0 -0 -0 -0 -0 -0 -0 -0 -0 -0 -0 -0 -0 -0 -0 -0 -0
-0 -0 -0 -0 -0 -0 -0 -0 -0 -0 -0 -0 -0 -0 -0 -0 -0 -0 -0 -0 -0 -0 -0 -0 -0 -0 -0 -0 -0 -0 -0 -0 -0 -0 -0 -0 -0 -0 -0 -0 -0 -0 -0 -0
-0 -0 -0 -0 -0 -0 -0 -0 -0 -0 -0 -0 -0 -0 -0 -0 -0 -0 -0 -0 -0 -0 -0 -0 -0 -0 -0 -0 -0 -0 -0 -0 -0 -0 -0 -0 -0 -0 -0 -0 -0 -0 -0 -0
-0 -0 -0 -0 -0 -0 -0 -0 -0 -0 -0 -0 -0 -0 -0 -0 -0 -0 -0 -0 -0 -0 -0 -0 -0 -0 -0 -0 -0 -0 -0 -0 -0 -0 -0 -0 -0 -0 -0 -0 -0 -0 -0 -0
-0 -0 -0 -0 -0 -0 -0 -0 -0 -0 -0 -0 -0 -0 -0 -0 -0 -0 -0 -0 -0 -0 -0 -0 -0 -0 -0 -0 -0 -0 -0 -0 -0 -0 -0 -0 -0 -0 -0 -0 -0 -0 -0 -0
-0 -0 -0 -0 -0 -0 -0 -0 -0 -0 -0 -0 -0 -0 -0 -0 -0 -0 -0 -0 -0 -0 -0 -0 -0 -0 -0 -0 -0 -0 -0 -0 -0 -0 -0 -0 -0 -0 -0 -0 -0 -0 -0 -0
-0 -0 -0 -0 -0 -0 -0 -0 -0 -0 -0 -0 -0 -0 -0 -0 -0 -0 -0 -0 -0 -0 -0 -0 -0 -0 -0 -0 -0 -0 -0 -0 -0 -0 -0 -0 -0 -0 -0 -0 -0 -0 -0 -0
-4 -0 -0 -0 -0 -0 -0 -0 -0 -0 -0 -0 -0 -0 -0 -0 -0 -0 -0 -0 -0 -0 -0 -0 -0 -0 -0 -0 -0 -0 -0 -0 -0 -0 -0 -0 -0 -0 -0 -0 -0 -0 -0 -0
-0 -0 -1 -0 -0 -0 -0 -0 -0 -0 -0 -0 -0 -0 -0 -0 -0 -0 -0 -0 -0 -0 -0 -0 -0 -0 -0 -0 -0 -0 -0 -0 -0 -0 -0 -0 -0 -0 -0 -0 -0 -0 -0 -0
-0 -0 -0 -13 -7 -4 -0 -0 -0 -0 -0 -0 -0 -0 -0 -0 -0 -0 -0 -0 -0 -0 -0 -0 -0 -0 -0 -0 -0 -0 -0 -0 -0 -0 -0 -0 -0 -0 -0 -0 -0 -0 -0 -0
-9 -26 -18 -14 -2 -0 -0 -0 -0 -0 -0 -0 -0 -0 -0 -0 -0 -0 -0 -0 -0 -0 -0 -0 -0 -0 -0 -0 -0 -0 -0 -0 -0 -0 -0 -0 -0 -0 -0 -0 -0 -0 -0 -0
-1 -7 -11 -0 -0 -0 -0 -0 -0 -0 -0 -0 -0 -0 -0 -0 -0 -0 -0 -0 -0 -0 -0 -0 -0 -0 -0 -0 -0 -0 -0 -0 -0 -0 -0 -0 -0 -0 -0 -0 -0 -0 -0 -0
-0 -5 -22 -0 -1 -0 -0 -0 -0 -0 -0 -0 -0 -0 -0 -0 -0 -0 -0 -0 -0 -0 -0 -0 -0 -0 -0 -0 -0 -0 -0 -0 -0 -0 -0 -0 -0 -0 -0 -0 -0 -0 -0 -0
-0 -0 -0 -9 -0 -0 -0 -0 -0 -0 -0 -0 -0 -0 -0 -0 -0 -0 -0 -0 -0 -0 -0 -0 -0 -0 -0 -0 -0 -0 -0 -0 -0 -0 -0 -0 -0 -0 -0 -0 -0 -0 -0 -0
-0 -0 -0 -0 -0 -0 -0 -0 -3 -0 -0 -0 -0 -0 -0 -0 -0 -0 -0 -0 -0 -0 -0 -0 -0 -0 -0 -0 -0 -0 -0 -0 -0 -0 -0 -0 -0 -0 -0 -0 -0 -0 -0 -2
-0 -0 -0 -0 -0 -0 -0 -0 -0 -0 -0 -0 -0 -0 -0 -0 -0 -0 -0 -0 -0 -0 -0 -0 -0 -0 -0 -0 -0 -0 -0 -0 -0 -0 -0 -0 -0 -0 -0 -0 -0 -0 -1 -1
Wind_Speed
18 18 20 19 19 19 20 23 27 26 25 35 30 33 32 28 30 30 26 11 5 2 4 2 2 3 4 5 6 6 6 7 8 11 12 13 13 14 15 14 15 17 19 21
19 19 16 17 18 19 21 24 27 27 27 35 31 34 24 25 27 29 29 20 11 7 6 3 1 1 3 4 5 6 7 8 10 11 13 15 14 15 16 15 16 18 19 21
19 18 16 18 19 22 22 23 25 29 35 25 31 23 22 22 25 29 29 23 14 8 6 4 3 2 1 3 4 6 7 9 10 12 13 14 15 16 17 17 19 19 20 21
19 16 17 19 20 21 24 20 26 30 34 30 28 27 21 22 25 29 28 26 21 10 7 4 3 3 2 1 3 5 7 9 11 12 14 15 17 18 19 19 20 20 22 23
21 19 19 19 20 20 22 25 28 27 27 27 24 24 22 21 23 27 27 25 23 16 6 3 3 2 3 3 3 4 7 10 13 15 16 18 19 20 20 21 21 23 24 24
20 18 19 19 20 20 24 25 28 25 25 27 21 25 27 22 22 25 24 24 25 22 12 5 4 4 4 5 5 6 9 12 14 16 18 19 21 21 22 23 24 25 25 26
22 20 18 19 20 21 24 29 31 30 30 28 22 29 24 19 21 23 23 23 25 24 17 8 4 3 3 4 5 8 10 14 16 18 19 21 22 23 24 25 26 27 28 29
24 26 18 18 20 23 26 23 27 35 33 33 28 28 24 19 20 21 22 22 23 23 20 13 8 5 5 6 8 10 12 15 16 18 20 21 23 24 25 26 27 28 29 31
24 27 19 20 21 23 24 26 23 29 29 33 27 26 22 19 20 23 24 23 24 24 22 19 13 9 9 10 11 13 15 16 17 18 20 22 24 25 26 27 28 29 31 34
21 31 23 22 22 23 23 21 29 27 34 36 32 32 29 20 21 22 24 23 23 23 25 23 18 14 12 13 14 15 15 17 18 20 23 24 25 27 28 29 32 35 36 34
20 25 28 24 24 25 25 27 25 26 26 34 39 33 23 21 20 23 23 23 22 25 26 25 22 19 16 14 14 16 18 19 22 24 25 27 28 30 33 36 37 37 36 35
21 26 32 30 26 24 24 26 23 30 33 30 35 38 23 20 22 23 22 23 24 26 26 27 24 20 17 16 16 18 21 23 25 27 30 32 34 35 36 37 37 37 38 37
20 27 37 35 30 26 28 26 26 29 31 35 37 35 21 26 24 23 25 26 26 26 25 22 20 19 18 18 20 22 25 27 29 32 33 35 36 37 38 38 39 38 39 39
22 29 32 37 38 32 34 30 27 28 35 37 34 42 34 30 28 27 25 26 24 24 22 19 20 20 21 22 24 26 27 29 31 32 34 36 37 38 38 38 39 40 39 42
27 38 34 35 35 37 38 37 34 35 35 40 44 41 36 28 25 25 26 27 25 24 20 21 22 22 23 24 26 27 29 31 33 35 36 37 38 38 39 40 41 41 42 42
30 41 38 45 38 39 43 39 36 38 39 40 41 43 27 23 22 25 26 26 24 23 22 22 22 23 25 26 27 29 31 33 35 37 39 39 39 40 41 41 42 41 41 42
35 37 41 52 40 41 46 38 35 36 34 35 39 30 21 23 25 27 26 25 23 22 22 21 23 24 25 27 29 32 33 35 37 38 38 39 39 40 40 42 42 43 44 45
38 37 38 48 43 53 41 31 28 27 28 25 21 21 23 24 24 22 22 22 21 20 23 24 25 26 26 28 32 33 35 37 38 38 38 38 39 40 41 42 43 44 45 45
27 31 38 41 43 42 36 30 29 32 32 22 25 25 25 25 21 24 22 22 23 24 25 26 26 27 28 32 34 35 36 36 37 37 37 37 38 40 40 40 41 41 41 40
29 27 33 38 46 50 37 26 23 23 36 22 24 26 27 22 30 28 22 24 25 25 26 28 27 27 31 32 33 35 36 36 36 35 36 36 36 37 38 38 38 37 36 37
37 35 38 41 43 38 26 23 23 38 39 22 20 21 24 26 24 23 25 27 26 27 28 26 26 29 31 32 32 33 34 35 33 33 34 34 34 34 33 33 33 33 33 33
40 39 40 37 42 48 23 26 34 25 18 18 20 20 22 23 25 26 27 26 26 28 27 27 29 30 30 30 30 33 33 32 32 32 33 34 33 32 31 31 31 31 31 32
41 34 38 37 40 32 29 27 17 16 17 18 20 21 23 25 25 26 27 28 28 28 29 28 29 32 31 30 30 33 33 32 30 31 31 31 31 30 30 30 30 31 30 30
33 29 36 37 30 26 20 16 15 13 15 16 19 22 23 26 26 28 28 30 30 30 31 30 33 33 33 32 32 30 28 26 26 28 30 30 29 30 29 28 27 28 29 28
32 33 35 34 27 20 14 7 10 12 15 17 20 22 24 25 28 28 28 29 30 32 30 31 32 32 32 34 34 30 28 27 27 27 27 29 29 28 28 26 26 26 26 23
28 28 29 32 20 17 10 9 9 13 16 19 23 26 26 26 28 27 29 31 32 33 33 34 34 34 37 37 37 34 32 28 28 30 29 30 29 28 27 26 27 25 26 27
Wind_Direction
349 352 336 350 351 353 352 346 340 346 349 336 346 338 339 351 354 354 353 1 15 357 345 307 256 250 267 258 253 258 267 286 296 302 306 310 312 317 321 328 332 337 338 338
346 344 358 359 355 353 351 342 339 343 348 338 342 337 357 0 1 1 357 10 24 35 31 37 72 250 231 230 242 259 273 285 295 301 306 310 312 314 317 322 326 330 333 334
341 348 354 352 351 346 347 346 344 340 336 355 341 356 0 5 5 0 360 5 20 43 57 65 69 79 129 210 233 257 275 289 299 304 309 313 315 317 316 316 318 322 326 329
343 353 349 347 346 348 343 354 345 341 338 341 350 341 356 357 356 354 356 0 4 13 18 45 47 60 70 4 278 272 283 294 302 306 306 307 308 309 311 313 316 319 321 322
332 339 340 340 343 347 343 343 341 343 342 342 346 344 352 355 350 353 353 357 1 11 42 73 94 51 7 358 325 304 302 304 307 309 309 308 308 310 312 313 314 316 318 320
334 345 341 341 342 342 339 341 341 343 342 337 346 344 343 347 348 349 355 355 355 357 16 30 14 20 6 346 333 317 305 303 306 308 310 310 309 310 310 311 311 313 315 316
330 332 340 344 339 340 339 338 333 332 333 332 342 334 336 347 349 348 349 350 351 352 3 28 56 78 21 351 337 326 317 310 308 307 308 309 309 309 308 309 309 311 312 313
320 320 337 342 338 334 333 337 332 325 326 325 332 328 339 351 351 354 355 351 351 353 359 5 7 19 2 348 337 329 323 318 313 309 308 309 310 310 310 310 310 310 310 311
321 319 335 335 335 334 332 327 334 326 327 324 328 329 334 343 342 344 344 347 346 348 350 351 350 347 339 331 326 324 323 320 317 314 312 311 311 311 310 310 310 310 311 311
327 316 326 328 331 330 326 332 324 326 321 319 322 320 320 328 329 335 337 338 342 344 343 342 338 333 330 327 325 325 324 321 319 317 315 313 312 312 311 310 309 309 309 310
328 319 320 326 320 319 321 318 321 322 318 316 317 320 330 328 331 328 332 334 338 338 337 335 334 331 329 332 333 332 331 327 323 320 318 316 314 312 310 308 308 308 308 308
323 319 312 315 323 323 319 316 314 312 314 311 313 310 326 327 327 327 328 331 335 337 336 333 332 336 338 340 339 333 328 325 323 320 316 313 312 311 310 309 309 310 308 309
322 315 312 315 320 321 314 314 312 312 312 305 305 310 322 323 323 324 323 325 331 333 338 342 345 344 342 339 335 331 328 325 322 320 317 314 313 313 311 311 312 312 311 310
318 307 303 302 309 315 310 311 310 307 305 305 297 303 305 308 311 317 319 322 327 331 336 338 338 337 335 333 330 327 325 324 322 321 319 317 316 315 314 313 312 311 310 307
312 304 304 301 303 305 302 301 300 296 296 296 302 302 307 307 311 316 319 321 323 324 329 331 331 330 330 329 328 327 326 325 324 323 321 319 317 316 315 313 312 311 309 308
309 303 306 303 303 301 298 298 296 295 295 294 298 300 309 311 316 317 320 322 321 320 323 327 328 328 328 328 326 326 326 326 325 323 321 320 318 317 315 315 314 313 311 309
304 304 305 302 308 307 301 299 297 301 303 303 300 306 313 315 317 319 321 322 321 321 323 328 327 327 327 328 328 327 326 326 325 324 323 322 321 319 318 317 315 314 312 310
297 301 303 302 307 299 309 315 313 310 314 317 319 321 320 319 322 323 326 326 325 325 325 327 326 327 327 328 327 327 327 326 326 326 325 325 324 322 320 319 317 315 313 311
301 299 301 300 299 303 306 309 310 310 308 312 314 318 320 319 321 324 329 329 326 326 326 326 326 326 326 326 327 328 328 328 328 328 328 328 328 326 325 323 321 320 318 317
320 308 298 303 301 300 309 313 319 318 302 313 317 318 319 322 311 317 326 327 326 327 326 325 328 329 327 328 330 329 330 330 330 333 333 333 332 331 329 327 326 326 324 323
314 311 302 301 299 304 312 317 320 303 306 315 321 324 326 322 324 326 326 324 328 328 328 330 330 329 329 330 332 331 332 333 336 337 337 336 336 335 334 333 333 332 330 329
312 310 306 306 302 301 312 313 304 312 324 323 324 325 327 326 325 325 328 328 329 329 331 330 328 329 332 335 334 333 335 338 339 340 339 339 339 340 339 337 336 336 335 333
308 308 306 305 303 311 313 310 320 324 321 324 326 327 329 329 329 330 330 330 330 330 330 332 332 330 334 334 335 334 337 340 343 344 343 343 343 342 341 339 339 338 338 336
317 317 307 309 312 313 319 325 326 335 339 340 336 333 332 329 330 329 329 328 329 329 327 330 328 329 329 331 334 337 343 347 348 347 346 346 345 344 343 342 342 341 341 339
316 316 311 308 313 317 318 335 336 339 342 342 340 338 335 332 329 330 330 330 329 326 328 329 329 330 330 328 330 339 342 344 346 347 348 346 346 344 343 344 344 344 343 342
318 316 315 313 317 308 297 325 345 341 340 340 338 335 334 333 331 332 331 329 326 325 325 325 326 325 322 323 326 332 337 341 342 343 346 346 345 345 344 344 343 347 346 344